Location: Miles
(41.4492°N, 81.6087°W)
Time: 22:38:45
(UTC+00:00)

Tiros 1 - All Passes

Search period start: 11 September 2024 00:00
Search period end: 21 September 2024 00:00
Orbit: 623 x 655 km, 48.4° (Epoch: 10 September)

Date Brightness Start Highest point End Pass type
(mag) Time Alt. Az. Time Alt. Az. Time Alt. Az.
11 Sep - 00:29:36 10° W 00:33:57 39° NNW 00:38:21 10° ENE visible
11 Sep - 02:12:23 10° WNW 02:16:43 37° N 02:21:05 10° ENE visible
11 Sep - 03:54:29 10° WNW 03:59:10 84° NNE 04:03:53 10° ESE visible
11 Sep - 05:37:10 10° W 05:40:48 22° SW 05:44:27 10° S night (unlit)
11 Sep - 21:29:10 10° SSW 21:33:19 35° SE 21:37:31 10° ENE daylight
11 Sep - 23:10:39 10° WSW 23:15:12 60° NNW 23:19:48 10° ENE daylight
12 Sep - 00:53:34 10° WNW 00:57:48 34° N 01:02:05 10° ENE visible
12 Sep - 02:36:00 10° WNW 02:40:31 48° NNE 02:45:04 10° E visible
12 Sep - 04:18:04 10° WNW 04:22:37 53° SW 04:27:12 10° SE visible
12 Sep - 20:12:52 10° SSE 20:15:18 14° SE 20:17:43 10° E daylight
12 Sep - 21:52:07 10° SW 21:56:40 71° SSE 22:01:16 10° ENE daylight
12 Sep - 23:34:33 10° W 23:38:55 41° NNW 23:43:20 10° ENE daylight
13 Sep - 01:17:23 10° WNW 01:21:40 36° N 01:25:59 10° ENE visible
13 Sep - 02:59:30 10° WNW 03:04:10 75° NNE 03:08:52 10° ESE visible
13 Sep - 04:42:00 10° W 04:45:53 26° SW 04:49:47 10° SSE night (unlit)
13 Sep - 20:34:24 10° SSW 20:38:24 30° SE 20:42:25 10° ENE daylight
13 Sep - 22:15:38 10° WSW 22:20:11 66° NNW 22:24:48 10° ENE daylight
13 Sep - 23:58:30 10° WNW 00:02:44 35° N 00:07:01 10° ENE visible
14 Sep - 01:41:01 10° WNW 01:45:28 45° NNE 01:49:58 10° E visible
14 Sep - 03:23:03 10° WNW 03:27:39 61° SW 03:32:17 10° SE visible
14 Sep - 05:07:13 10° WSW 05:08:58 12° SW 05:10:44 10° SSW night (unlit)
14 Sep - 19:18:46 10° SSE 19:20:24 12° SE 19:22:02 10° ESE daylight
14 Sep - 20:57:10 10° SW 21:01:41 62° SE 21:06:14 10° ENE daylight
14 Sep - 22:39:27 10° W 22:43:52 44° NNW 22:48:18 10° ENE daylight
15 Sep - 00:22:21 10° WNW 00:26:35 35° N 00:30:52 10° ENE visible
15 Sep - 02:04:30 10° WNW 02:09:09 68° NNE 02:13:48 10° ESE visible
15 Sep - 03:46:52 10° WNW 03:50:56 30° SW 03:55:02 10° SSE visible
15 Sep - 19:39:40 10° SSW 19:43:27 26° SE 19:47:15 10° E daylight
15 Sep - 21:20:34 10° WSW 21:25:09 74° NNW 21:29:46 10° ENE daylight
15 Sep - 23:03:24 10° WNW 23:07:39 35° N 23:11:55 10° ENE daylight
16 Sep - 00:45:59 10° WNW 00:50:23 42° NNE 00:54:49 10° E visible
16 Sep - 02:28:01 10° WNW 02:32:38 70° SSW 02:37:17 10° SE visible
16 Sep - 04:11:33 10° W 04:14:02 14° SW 04:16:32 10° SSW night (unlit)
16 Sep - 20:02:14 10° SW 20:06:41 53° SE 20:11:09 10° ENE daylight
16 Sep - 21:44:21 10° W 21:48:46 47° NNW 21:53:14 10° ENE daylight
16 Sep - 23:27:15 10° WNW 23:31:29 34° N 23:35:43 10° ENE daylight
17 Sep - 01:09:28 10° WNW 01:14:04 61° NNE 01:18:41 10° ESE visible
17 Sep - 02:51:43 10° WNW 02:55:56 35° SW 03:00:12 10° SSE visible
17 Sep - 18:44:57 10° S 18:48:28 22° SE 18:52:00 10° E daylight
17 Sep - 20:25:30 10° WSW 20:30:05 83° NNW 20:34:42 10° ENE daylight
17 Sep - 22:08:15 10° WNW 22:12:30 36° N 22:16:48 10° ENE daylight
17 Sep - 23:50:55 10° WNW 23:55:16 40° NNE 23:59:38 10° E visible
18 Sep - 01:32:57 10° WNW 01:37:35 80° SSW 01:42:15 10° SE visible
18 Sep - 03:16:05 10° W 03:19:04 17° SW 03:22:03 10° S visible
18 Sep - 19:07:17 10° SW 19:11:39 45° SE 19:16:01 10° ENE daylight
18 Sep - 20:49:11 10° W 20:53:39 51° NNW 20:58:09 10° ENE daylight
18 Sep - 22:32:07 10° WNW 22:36:19 34° N 22:40:32 10° ENE daylight
19 Sep - 00:14:25 10° WNW 00:18:57 55° NNE 00:23:31 10° E visible
19 Sep - 01:56:34 10° WNW 02:00:55 41° SW 02:05:17 10° SSE visible
19 Sep - 17:50:17 10° S 17:53:28 19° SE 17:56:39 10° E daylight
19 Sep - 19:30:25 10° WSW 19:34:59 87° SSE 19:39:36 10° ENE daylight
19 Sep - 21:13:04 10° W 21:17:21 38° N 21:21:40 10° ENE daylight
19 Sep - 22:55:48 10° WNW 23:00:06 38° N 23:04:26 10° E daylight
20 Sep - 00:37:51 10° WNW 00:42:29 90° S 00:47:09 10° ESE visible
20 Sep - 02:20:41 10° W 02:24:03 20° SW 02:27:25 10° S visible
20 Sep - 18:12:20 10° SSW 18:16:35 39° SE 18:20:51 10° ENE daylight
20 Sep - 19:54:00 10° W 19:58:31 56° NNW 20:03:02 10° ENE daylight
20 Sep - 21:36:57 10° WNW 21:41:08 34° N 21:45:20 10° ENE daylight
20 Sep - 23:19:19 10° WNW 23:23:48 50° NNE 23:28:18 10° E daylight
